Regional Weather Roundup
Issued by NWS

Home | Current Version | Previous Version | Graphics & Text | Print | Product List | Glossary On
Versions: 1 2 3 4 5 6 7 8 9 10 11 12 13 14 15 16 17 18 19 20 21 22 23 24 25 26 27 28 29 30 31 32 33 34 35 36 37 38 39 40 41 42 43 44 45 46 47 48 49 50
000
ASUS45 KBOU 262307
RWRCO

WEATHER ROUNDUP FOR COLORADO
NATIONAL WEATHER SERVICE DENVER/BOULDER CO
500 PM MDT MON JUN 26 2017

NOTE: "FAIR" INDICATES FEW OR NO CLOUDS BELOW 12000 FEET WITH NO
SIGNIFICANT WEATHER AND/OR OBSTRUCTIONS TO VISIBILITY.

COZ001>005-013-030-031-270000-
...NORTHWEST COLORADO...

CITY           SKY/WX    TMP DP  RH WIND       PRES   REMARKS
CRAIG          FAIR      90  17   7 NW10      30.15F
HAYDEN         FAIR      84  28  13 SW3       30.18F
MEEKER         FAIR      90  22   8 SE10      30.14F
RABBIT EARS PA FAIR      64  21  19 NW6       30.53F
STEAMBOAT SPGS FAIR      83  30  14 S6        30.21F
WALDEN         FAIR      79  25  13 NW9G16    30.32F
$$

COZ006>008-011-270000-
...WEST CENTRAL VALLEYS...

CITY           SKY/WX    TMP DP  RH WIND       PRES   REMARKS
GRAND JUNCTION FAIR      97  18   6 NW17G25   30.00F
MONTROSE       FAIR      93  25   8 NW8       30.09F
EAGLE            N/A     84  23  10 MISG      30.18F
RIFLE          FAIR      91  23   8 NW8       30.07F
DELTA          FAIR      99  23   7 N8G16     30.04F
NUCLA          FAIR      90  27  10 S16G26    30.17S
$$

COZ017>023-064>068-270000-
...SOUTHWEST COLORADO...

CITY           SKY/WX    TMP DP  RH WIND       PRES   REMARKS
DURANGO        PTSUNNY   77  28  16 NE17G31   30.24R
CORTEZ         FAIR      93  27   9 NW16      30.13F
PAGOSA SPRINGS FAIR      78  20  11 CALM      30.31S
TELLURIDE      NOT AVBL
WOLF CREEK PAS CLOUDY    54  30  40 S14G22    30.68R
$$

COZ009-010-012-014-032>034-037-058>063-270000-
...CENTRAL COLORADO...

CITY           SKY/WX    TMP DP  RH WIND       PRES   REMARKS
ASPEN          FAIR      83  20   9 VRB5      30.25F
BUENA VISTA    FAIR      81  24  12 SE15G26   30.26S
COPPER MTN     PTSUNNY   64   3   9 NW14G25   30.64F
BERTHOUD PASS  FAIR      55  43  62 N8G17     30.67F
COTTONWOOD PAS FAIR      81 N/A N/A CALM      30.43S
GUNNISON       FAIR      80  30  16 NE10      30.26F
KREMMLING      NOT AVBL
LEADVILLE      FAIR      74   7   7 W10G17    30.42F
MONARCH PASS   PTSUNNY   59  19  21 N13G21    30.72F
SALIDA         FAIR      82  24  12 SE15      30.31F
SUNLIGHT       FAIR      66  23  19 W7        30.56F
WILKERSON PASS FAIR      66  27  22 E8        30.60S
$$

COZ069>075-270000-
...SAN LUIS VALLEY/SANGRE DE CRISTO MOUNTAINS...

CITY           SKY/WX    TMP DP  RH WIND       PRES   REMARKS
ALAMOSA        FAIR      76  35  22 SW29G38   30.26F
DEL NORTE      LGT RAIN  71  38  29 SW12G23   30.30S
LA VETA PASS   CLOUDY    57  52  82 MISG      30.63S
SAGUACHE       FAIR      79  27  14 NE10      30.28F
$$

COZ035-036-038>040-270000-
...NORTHERN COLORADO FRONT RANGE...

CITY           SKY/WX    TMP DP  RH WIND       PRES   REMARKS
DENVER INTL AP FAIR      87  38  17 NE10      30.13F
DMNS CITY PARK   N/A     87  37  17 NE10G21   30.11F
AURORA         MOSUNNY   88  37  16 E8        30.14F
FRONT RANGE AP FAIR      88  34  14 E8G16     30.15S
ERIE MUNI ARPT FAIR      87  39  18 E8        30.12F
BOULDER MUN AP FAIR      86  45  23 E5        30.13F
CENTENNIAL     FAIR      87  34  15 N13       30.15F
BROOMFIELD     FAIR      86  37  17 NE7       30.16F
FORT COLLINS   FAIR      89  42  19 E9        30.11F
LONGMONT       FAIR      90  40  17 NE3       30.13F
$$

COZ041-046-047-076>085-087-088-270000-
...PIKES PEAK/PALMER DIVIDE AND SOUTHERN FOOTHILLS...

CITY           SKY/WX    TMP DP  RH WIND       PRES   REMARKS
COLO. SPRINGS  PTSUNNY   80  46  30 VRB5      30.19F
A. F. ACADEMY  FAIR      80  42  25 S15       30.19F
SCHRIEVER AFB  FAIR      81  36  20 S6        30.20F
CHEYENNE MTN   PTSUNNY   72  43  35 S9        30.21S
ELLICOTT       FAIR     N/A N/A N/A S12G17    30.18S
FALCON           N/A     82  29  14 SE8G20    30.25S
FORT CARSON    PTSUNNY   80  46  30 S12       30.17S
LIMON          FAIR      84  46  26 SE17G23   30.14F
MONUMENT HILL  FAIR      79  34  19 NE8       30.26F
CANON CITY     MOSUNNY   84  50  30 MISG      30.14S
WALSENBURG     FAIR      79  52  38 SE10      30.20R
TRINIDAD       FAIR      80  53  39 W12       30.18R
$$

COZ042>045-048>051-090-091-270000-
...NORTHEAST COLORADO...

CITY           SKY/WX    TMP DP  RH WIND       PRES   REMARKS
GREELEY ARPT   FAIR      87  47  24 SE8       30.10F
AKRON          PTSUNNY   82  50  32 E10       30.13F
BURLINGTON     FAIR      85  55  35 E14       30.11S
WRAY           FAIR      81  57  44 E13       30.11F
YUMA           MOCLDY    77  55  47 E18G25    30.11F
STERLING       FAIR      86  48  26 NE10      30.08F
HOLYOKE        NOT AVBL
FORT MORGAN    FAIR      88  39  17 E8        30.11F
$$

COZ086-089-092>099-270000-
...SOUTHEAST COLORADO...

CITY           SKY/WX    TMP DP  RH WIND       PRES   REMARKS
PUEBLO         FAIR      88  47  24 E9        30.08S
LA JUNTA       FAIR      89  53  29 E12       30.06F
LAMAR          FAIR      89  53  29 E6        30.04F
SPRINGFIELD      N/A     75  56  51 SE18G24   30.10F
$$



USA.gov is the U.S. government's official web portal to all federal, state and local government web resources and services.